Wind_Speed
18 15 11 9 5 8 14 11 9 5 8 9 13 11 10 12 8 11 10 15 12 13 12 9 6 6 7 8 10 12 11 10 8 8 7 7 7 6 4 5 5 6 7 9 7 7 7 7 6
20 16 12 7 11 16 15 14 8 7 9 9 11 12 14 8 15 14 8 13 16 15 17 13 10 6 6 8 7 9 11 12 9 8 8 7 7 6 5 5 5 5 6 6 5 5 5 5 4
22 19 10 12 18 21 14 9 10 9 9 9 6 14 9 10 14 15 14 12 16 18 20 17 13 10 8 6 6 7 9 10 7 9 11 11 9 8 7 6 5 5 6 6 5 5 5 4 4
25 20 14 19 19 20 16 8 11 8 10 13 11 6 14 11 13 11 13 15 21 17 22 20 16 13 11 8 5 5 6 8 6 6 8 9 10 9 8 8 7 7 7 6 6 6 6 5 5
29 19 21 21 25 19 17 8 10 10 7 6 14 6 8 11 13 11 11 11 14 18 21 20 18 15 13 10 8 5 3 6 5 5 7 9 8 9 9 9 8 8 8 7 6 6 6 5 5
31 25 22 29 23 23 18 16 11 11 9 7 15 6 9 12 12 12 10 7 9 14 16 18 18 17 16 14 11 9 5 2 3 3 3 5 7 8 8 8 9 8 8 8 7 7 7 7 6
34 29 29 24 23 22 22 18 14 12 11 10 9 9 10 15 14 12 12 12 10 9 12 15 17 18 18 17 14 12 9 4 1 0 0 2 3 4 5 6 6 6 5 6 6 6 6 6 6
29 29 30 28 26 24 20 17 17 17 15 15 16 11 10 18 17 15 13 15 15 14 14 13 18 19 19 19 17 15 13 11 8 6 4 2 3 3 2 1 2 3 2 2 3 3 4 4 5
34 30 32 30 28 24 19 20 16 16 17 19 14 19 18 17 16 15 14 14 16 17 14 13 15 18 20 21 20 18 17 15 14 12 9 7 4 5 7 6 5 4 3 3 3 2 3 3 4
38 34 34 25 25 23 21 23 16 22 23 17 22 24 23 19 18 17 14 12 14 15 16 16 15 15 19 21 21 20 19 19 17 16 14 13 11 10 8 9 10 9 8 8 8 7 7 7 7
39 37 30 24 25 22 20 19 16 20 17 18 18 19 26 24 23 20 17 15 15 16 18 18 18 17 17 19 21 22 22 21 20 18 17 17 16 15 14 13 12 13 14 13 13 12 12 11 11
25 36 22 26 31 34 25 17 17 22 15 16 19 27 25 26 26 24 21 19 19 19 19 20 21 20 19 19 19 22 23 23 22 21 22 21 20 20 19 19 17 17 17 17 17 17 16 15 15
34 15 26 20 32 34 23 21 21 17 20 27 25 23 25 27 28 26 25 22 22 24 23 22 23 24 24 23 22 22 22 23 25 25 25 25 24 24 25 23 22 22 21 20 20 21 20 20 19
21 19 20 20 25 26 25 18 21 25 17 24 25 23 26 28 27 28 27 27 28 29 28 25 24 25 23 22 22 22 23 26 27 28 28 29 30 30 29 29 27 26 26 25 24 23 24 24 24
12 23 14 20 24 20 23 23 27 25 15 24 24 24 26 29 30 29 29 30 30 31 30 28 25 26 25 24 25 24 25 25 25 27 28 30 32 33 32 33 31 30 29 29 29 28 28 28 27
16 18 21 22 26 26 25 22 18 24 26 26 21 24 26 30 31 31 31 33 34 34 33 31 31 29 29 29 29 29 29 30 31 30 30 29 30 32 33 34 34 33 33 34 32 31 31 31 30
21 18 24 16 29 23 27 18 19 20 17 23 28 28 29 30 32 32 33 35 36 35 35 36 36 36 34 33 35 34 32 33 33 35 34 33 32 31 32 33 35 34 36 37 36 35 34 33 33
26 28 21 24 19 30 24 22 16 23 23 23 22 22 26 30 32 33 34 36 38 38 40 41 41 41 40 39 40 40 38 36 36 36 37 37 37 37 38 38 38 38 37 36 37 37 35 35 36
19 23 19 20 21 16 22 21 21 21 25 25 26 26 25 29 26 34 35 36 37 37 38 40 42 43 43 43 44 46 41 39 40 38 34 36 37 37 37 38 39 39 39 37 36 36 36 37 37
11 20 21 14 21 25 16 19 19 22 22 24 26 27 27 28 30 35 33 36 37 38 40 41 42 43 45 45 46 48 43 41 42 42 40 40 40 37 38 38 38 39 38 39 37 36 36 35 36
16 17 19 9 17 14 11 19 21 20 24 28 28 26 27 28 30 34 33 35 36 37 38 38 39 40 41 43 45 46 50 48 47 46 45 44 43 40 40 38 39 39 40 40 38 37 36 35 35
17 14 15 11 10 8 11 4 12 20 24 24 24 25 26 27 30 32 33 32 33 34 34 35 35 36 37 37 39 41 42 45 43 43 44 44 46 45 46 45 43 43 43 43 42 40 37 38 38
11 18 11 11 8 4 9 6 9 14 17 17 17 19 21 22 24 25 26 27 28 28 28 28 28 29 30 33 37 39 41 43 42 40 41 43 44 47 49 49 50 51 49 48 47 47 42 41 41
14 14 9 7 4 5 13 13 12 14 16 17 18 16 17 17 17 18 20 23 25 26 26 26 27 28 29 31 32 34 35 36 40 43 43 42 40 43 45 51 55 58 56 53 52 51 49 47 45
17 17 7 6 5 4 12 9 3 13 14 15 14 14 14 13 14 15 17 19 21 24 27 28 30 31 33 34 35 36 37 36 37 40 44 44 44 43 44 42 44 47 51 53 55 55 55 53 52
21 21 3 7 6 7 7 9 4 13 18 20 16 14 13 13 14 16 17 20 24 27 29 31 33 35 37 39 40 40 39 39 37 37 41 46 47 47 48 50 49 50 50 50 50 53 55 54 54
26 14 9 2 1 2 9 7 9 18 19 18 16 14 15 15 17 20 22 25 28 30 31 32 34 35 37 37 38 41 42 41 40 39 40 42 44 43 44 46 43 41 44 47 51 53 53 52 51
23 18 6 4 4 5 7 7 6 18 21 17 16 14 13 15 19 22 25 27 27 27 28 29 29 30 31 31 31 33 37 42 44 44 44 45 45 42 44 45 44 43 42 42 44 48 52 53 52
10 10 8 4 2 3 2 4 5 16 19 15 8 10 12 15 18 20 22 24 24 23 23 24 23 23 24 24 24 25 28 31 36 40 44 47 48 48 48 47 45 45 44 43 43 43 44 49 49
13 9 13 6 5 4 2 1 12 16 16 13 9 11 12 14 16 18 19 19 19 20 20 19 18 18 19 21 22 24 25 27 29 29 30 32 34 37 38 40 41 39 40 41 41 42 42 42 45
Wind_Direction
219 215 216 230 236 228 230 225 213 221 208 211 200 201 199 211 220 220 207 205 197 203 208 194 165 120 103 82 71 62 52 47 51 46 41 37 37 46 52 57 63 76 83 91 95 103 106 107 111
223 216 212 218 228 227 229 220 221 204 208 212 218 218 205 205 230 217 202 204 211 210 202 197 189 176 140 114 72 61 45 34 44 45 45 47 50 56 65 69 71 70 83 90 86 82 82 85 98
226 215 208 225 232 231 226 200 215 212 216 165 168 170 188 213 211 218 221 210 207 213 204 201 200 196 174 135 105 69 46 31 51 56 48 42 46 54 64 70 78 85 89 90 86 84 81 81 81
228 214 215 220 224 224 224 237 203 197 198 193 174 178 201 199 195 193 198 206 205 209 206 203 204 203 191 162 135 104 71 39 45 44 33 36 41 49 62 72 76 81 86 89 90 90 89 89 90
223 205 221 228 229 225 221 223 192 190 187 181 178 196 207 190 188 178 197 205 204 209 212 210 209 206 204 194 167 162 88 63 60 45 40 36 43 53 62 70 79 86 89 90 91 90 92 89 85
212 209 221 225 228 224 224 215 220 209 208 201 183 182 210 197 189 197 189 187 203 208 210 215 216 215 211 208 193 183 160 80 78 51 29 18 40 52 58 63 70 76 83 86 84 82 78 74 69
206 210 223 230 229 227 220 221 219 209 216 210 203 182 220 210 204 198 203 211 214 215 221 216 220 223 220 215 212 199 195 196 233 187 19 348 345 35 48 51 56 62 65 70 63 60 58 57 53
214 214 228 229 227 232 224 219 215 220 224 224 204 195 210 214 213 216 219 223 224 231 236 229 224 225 224 223 221 218 207 212 213 226 224 252 255 287 301 3 16 9 38 65 52 42 32 24 19
214 221 230 224 228 233 227 222 221 219 211 225 217 197 206 211 208 220 227 224 222 219 226 231 234 232 230 229 227 225 224 219 224 222 219 222 246 250 262 259 265 273 256 269 282 301 320 334 342
210 217 223 224 230 234 229 232 216 230 225 223 223 221 220 212 215 223 222 224 217 213 222 233 239 240 239 237 234 232 231 230 229 229 230 229 232 245 252 263 268 266 265 268 272 277 283 287 294
216 220 222 224 230 222 216 235 211 227 224 222 225 228 226 226 224 226 228 229 227 224 223 227 234 242 242 243 242 241 239 238 239 237 235 239 241 239 246 250 257 265 267 267 269 270 276 281 284
218 223 217 225 234 225 216 226 225 229 217 209 208 228 230 227 229 231 234 237 245 251 241 236 240 242 245 245 244 244 244 244 246 246 245 242 245 247 245 249 251 254 262 269 270 269 272 275 277
220 217 211 209 234 230 229 225 221 230 225 228 235 234 231 230 230 233 238 241 245 254 254 249 243 238 243 248 248 249 249 249 249 250 252 252 250 252 251 249 251 256 258 261 267 270 271 273 275
229 210 208 212 232 233 227 225 225 222 214 233 232 233 234 235 233 234 238 245 249 253 255 251 248 241 241 246 249 251 252 252 253 255 256 255 252 254 253 253 252 254 259 262 266 269 271 271 273
218 204 208 212 225 238 237 232 231 224 230 235 233 234 238 239 239 240 243 244 241 242 246 250 253 249 248 245 247 252 256 258 260 259 257 256 255 255 254 255 255 257 258 259 262 267 270 271 273
204 201 214 216 226 230 236 241 248 248 240 238 239 239 241 239 241 243 243 243 240 243 248 249 253 250 249 250 252 254 261 263 261 260 258 258 257 257 258 260 260 260 260 261 261 262 265 268 271
202 206 212 214 226 227 235 244 239 256 240 235 239 241 244 244 242 243 246 246 248 248 246 246 248 251 252 253 254 257 259 254 259 260 259 257 256 259 262 265 267 263 264 263 263 264 264 266 269
205 209 212 205 227 223 227 237 237 234 238 236 241 242 244 243 246 246 248 245 245 244 244 245 246 247 251 254 256 257 261 258 255 260 261 260 260 260 261 263 264 268 266 265 265 267 268 268 269
224 213 216 213 233 230 228 237 237 242 247 248 246 246 246 245 246 246 247 251 252 253 252 252 253 254 254 255 258 263 261 260 260 260 263 260 259 262 263 263 264 264 266 266 265 266 267 266 266
222 204 202 210 223 233 233 241 238 240 253 251 248 243 241 240 242 247 248 251 253 254 255 255 256 258 260 261 262 267 267 261 261 261 260 261 263 260 264 262 263 264 264 265 265 266 269 266 265
206 200 197 217 220 223 237 259 255 245 245 243 248 247 245 244 244 247 248 250 252 255 257 260 261 263 263 264 265 265 269 270 266 264 264 263 262 260 261 262 263 265 264 263 265 267 267 267 263
199 196 193 194 184 221 216 267 197 233 235 239 242 243 241 240 242 245 248 252 254 258 261 263 264 265 265 264 264 265 266 268 270 268 266 263 261 259 259 260 262 263 263 264 267 267 266 266 264
189 201 181 193 210 238 216 241 198 220 227 226 229 232 235 237 240 243 248 252 255 257 260 263 265 265 264 261 261 263 265 268 269 267 264 263 261 256 253 255 258 260 260 261 263 264 266 266 265
200 185 182 188 197 242 218 214 204 203 211 210 220 222 226 230 236 240 245 250 255 258 262 264 264 264 265 265 264 265 267 269 269 268 266 266 265 263 258 255 256 258 260 260 261 263 262 263 263
187 170 162 194 198 237 187 203 225 198 190 198 201 208 220 229 238 246 252 257 262 265 266 269 270 270 270 270 269 268 268 268 269 265 262 262 262 262 263 259 258 258 257 258 259 261 262 261 261
183 189 242 205 194 177 187 221 211 207 201 192 195 209 218 232 246 257 266 270 271 272 273 273 274 275 275 274 273 273 273 272 269 266 263 263 264 265 267 264 263 263 261 259 259 259 260 260 259
191 201 208 308 43 199 190 207 240 213 202 197 205 220 237 254 268 276 281 284 284 283 283 280 278 277 275 273 271 269 268 269 269 268 265 263 263 265 266 267 268 264 264 262 260 259 261 262 261
187 194 201 216 212 218 176 216 198 199 196 206 213 236 259 274 281 288 291 291 289 288 286 284 283 280 277 274 270 268 266 265 265 263 262 262 264 262 262 262 264 263 262 264 264 263 261 261 261
187 194 188 198 244 294 214 150 189 188 181 185 213 255 276 286 296 296 295 292 287 288 289 289 287 282 279 278 276 273 271 270 268 268 267 265 265 265 263 263 260 261 262 263 264 265 265 262 262
193 204 206 219 202 227 297 79 158 165 178 200 249 282 287 295 298 299 297 293 289 293 296 298 295 286 278 276 278 280 281 280 275 273 275 274 274 272 269 266 263 263 262 262 264 265 263 263 262
Height
3140 3142 3144 3148 3154 3151 3148 3150 3151 3152 3153 3153 3153 3156 3162 3161 3165 3167 3164 3166 3168 3169 3171 3173 3174 3174 3174 3174 3174 3174 3175 3174 3173 3172 3171 3171 3169 3168 3168 3167 3167 3166 3165 3165 3166 3167 3167 3167 3168
3138 3140 3143 3147 3149 3146 3146 3148 3149 3151 3150 3149 3152 3155 3159 3164 3160 3161 3164 3165 3167 3169 3170 3172 3174 3175 3175 3175 3175 3175 3175 3175 3174 3174 3173 3172 3171 3170 3169 3168 3168 3167 3167 3167 3167 3168 3168 3169 3169
3136 3139 3143 3144 3143 3143 3144 3145 3149 3148 3148 3150 3154 3155 3158 3160 3159 3161 3163 3164 3166 3168 3170 3172 3173 3174 3175 3175 3175 3175 3175 3176 3176 3175 3174 3173 3172 3171 3170 3170 3169 3169 3169 3169 3169 3169 3169 3170 3170
3134 3137 3139 3138 3137 3141 3143 3144 3147 3147 3148 3150 3152 3157 3156 3157 3158 3160 3162 3163 3165 3166 3168 3171 3172 3174 3175 3175 3175 3175 3175 3176 3176 3177 3176 3176 3175 3173 3172 3172 3171 3171 3171 3171 3171 3171 3171 3171 3171
3129 3133 3134 3133 3135 3138 3142 3141 3145 3147 3148 3151 3152 3156 3156 3156 3158 3159 3161 3162 3163 3165 3167 3170 3171 3173 3174 3174 3175 3176 3176 3176 3177 3177 3177 3177 3176 3176 3175 3175 3174 3173 3173 3173 3173 3173 3173 3173 3172
3124 3128 3128 3127 3132 3136 3139 3141 3143 3145 3148 3149 3152 3155 3155 3156 3157 3159 3160 3162 3163 3165 3167 3169 3170 3172 3173 3174 3174 3175 3176 3176 3177 3178 3178 3178 3178 3178 3177 3177 3176 3176 3175 3175 3175 3175 3174 3174 3174
3115 3121 3121 3125 3129 3132 3136 3139 3140 3144 3147 3149 3150 3154 3154 3154 3156 3158 3160 3161 3163 3164 3166 3167 3169 3170 3171 3172 3173 3174 3175 3176 3177 3177 3178 3179 3179 3179 3178 3178 3178 3178 3178 3177 3177 3176 3176 3175 3175
3113 3117 3119 3121 3125 3129 3134 3136 3138 3141 3145 3146 3147 3152 3154 3152 3154 3156 3158 3160 3161 3163 3164 3166 3167 3169 3170 3171 3172 3173 3174 3175 3176 3176 3177 3177 3179 3179 3179 3179 3179 3179 3178 3178 3177 3177 3177 3177 3177
3107 3111 3112 3117 3122 3128 3131 3132 3134 3137 3141 3143 3146 3146 3147 3150 3152 3154 3156 3158 3159 3161 3163 3164 3165 3166 3168 3169 3170 3171 3172 3173 3174 3175 3176 3177 3178 3178 3179 3179 3179 3178 3178 3177 3177 3177 3177 3177 3177
3100 3105 3109 3118 3122 3124 3128 3127 3133 3134 3137 3140 3141 3143 3145 3148 3150 3152 3154 3155 3157 3159 3160 3161 3163 3164 3165 3166 3168 3169 3170 3171 3171 3173 3174 3175 3176 3177 3177 3178 3178 3177 3177 3177 3177 3177 3177 3177 3176
3096 3099 3110 3115 3116 3118 3123 3123 3129 3130 3135 3136 3139 3140 3142 3145 3148 3150 3152 3153 3155 3157 3159 3160 3160 3161 3162 3164 3165 3167 3168 3168 3170 3170 3171 3173 3173 3174 3175 3175 3176 3176 3176 3176 3176 3176 3176 3175 3175
3094 3097 3107 3113 3109 3112 3118 3123 3124 3126 3133 3132 3133 3134 3139 3142 3144 3147 3149 3151 3153 3154 3155 3157 3158 3159 3160 3161 3162 3163 3164 3166 3167 3168 3168 3169 3170 3171 3171 3172 3173 3173 3174 3174 3174 3174 3174 3173 3173
3089 3097 3101 3104 3103 3109 3115 3118 3121 3123 3125 3127 3128 3132 3135 3138 3140 3143 3145 3148 3149 3150 3152 3154 3155 3156 3157 3158 3159 3160 3161 3163 3163 3164 3165 3166 3166 3167 3168 3168 3170 3170 3171 3171 3171 3171 3171 3171 3170
3088 3094 3096 3100 3101 3105 3109 3114 3115 3119 3121 3122 3125 3127 3130 3133 3136 3138 3141 3144 3145 3146 3147 3149 3151 3153 3154 3156 3156 3157 3157 3158 3159 3160 3162 3162 3162 3162 3163 3164 3165 3167 3166 3167 3168 3168 3168 3167 3167
3088 3092 3094 3097 3100 3102 3106 3109 3108 3114 3117 3118 3121 3123 3125 3128 3131 3134 3137 3139 3140 3141 3142 3145 3148 3149 3150 3151 3152 3153 3153 3154 3155 3156 3156 3157 3158 3158 3158 3159 3161 3161 3162 3162 3163 3163 3163 3162 3163
3084 3089 3091 3093 3096 3100 3102 3103 3108 3109 3112 3114 3117 3119 3122 3124 3126 3129 3132 3132 3134 3136 3138 3141 3142 3143 3145 3146 3147 3149 3150 3150 3150 3151 3151 3152 3153 3154 3154 3155 3155 3156 3156 3156 3157 3157 3157 3157 3158
3081 3083 3087 3092 3093 3097 3097 3101 3106 3105 3107 3110 3113 3115 3117 3119 3121 3123 3124 3126 3128 3131 3133 3134 3135 3137 3139 3140 3141 3142 3143 3144 3145 3144 3146 3147 3147 3148 3149 3149 3148 3151 3150 3151 3152 3152 3152 3152 3152
3074 3080 3083 3087 3088 3091 3094 3096 3102 3101 3102 3106 3108 3109 3111 3113 3115 3117 3117 3118 3119 3122 3124 3126 3128 3130 3133 3134 3134 3135 3136 3138 3139 3139 3140 3141 3142 3142 3142 3143 3143 3142 3143 3145 3146 3146 3147 3147 3147
3076 3079 3081 3085 3085 3087 3089 3093 3096 3097 3098 3101 3103 3104 3105 3108 3109 3107 3109 3111 3113 3115 3117 3119 3121 3123 3125 3127 3127 3126 3130 3133 3132 3134 3134 3133 3134 3135 3135 3136 3137 3137 3136 3138 3139 3139 3140 3140 3140
3073 3075 3079 3083 3084 3085 3087 3087 3090 3091 3093 3095 3096 3097 3099 3101 3101 3101 3103 3104 3106 3107 3109 3111 3113 3115 3117 3119 3119 3118 3121 3123 3124 3125 3127 3128 3127 3129 3129 3130 3130 3130 3130 3129 3131 3132 3132 3133 3133
3072 3075 3077 3081 3080 3081 3083 3082 3083 3086 3086 3087 3088 3091 3093 3094 3095 3094 3096 3097 3099 3100 3102 3104 3105 3107 3108 3109 3110 3110 3109 3109 3112 3115 3118 3121 3121 3121 3121 3122 3122 3123 3123 3123 3123 3124 3125 3126 3126
3071 3073 3074 3077 3080 3081 3081 3078 3077 3077 3078 3080 3082 3084 3086 3087 3087 3088 3090 3091 3093 3094 3096 3097 3098 3098 3100 3101 3100 3101 3101 3101 3102 3104 3105 3108 3110 3112 3112 3112 3113 3114 3115 3114 3116 3116 3117 3117 3118
3068 3070 3074 3077 3079 3078 3079 3081 3074 3073 3073 3075 3077 3078 3080 3081 3083 3084 3085 3086 3087 3088 3089 3090 3091 3091 3091 3092 3092 3093 3092 3093 3093 3094 3095 3097 3098 3100 3103 3103 3103 3103 3104 3106 3106 3106 3108 3108 3109
3065 3069 3074 3076 3078 3076 3074 3076 3070 3069 3071 3071 3073 3075 3076 3077 3079 3080 3081 3082 3082 3083 3084 3085 3085 3085 3085 3085 3085 3085 3085 3085 3085 3086 3087 3088 3089 3088 3091 3093 3093 3093 3094 3094 3096 3097 3096 3099 3098
3064 3069 3072 3076 3075 3069 3070 3073 3067 3068 3069 3070 3071 3073 3074 3076 3077 3077 3078 3078 3078 3078 3078 3078 3078 3078 3077 3078 3078 3077 3077 3077 3077 3077 3077 3078 3079 3079 3080 3083 3083 3082 3083 3083 3084 3084 3085 3087 3088
3061 3066 3063 3063 3061 3062 3069 3067 3064 3064 3065 3066 3069 3071 3072 3073 3073 3073 3074 3074 3073 3073 3072 3072 3071 3070 3068 3068 3068 3068 3068 3067 3068 3069 3069 3069 3070 3071 3070 3071 3072 3073 3073 3073 3073 3073 3073 3074 3076
3058 3060 3062 3062 3061 3063 3061 3062 3060 3060 3062 3065 3068 3069 3069 3070 3070 3069 3068 3068 3067 3065 3063 3063 3062 3060 3059 3059 3058 3058 3058 3058 3059 3059 3060 3060 3060 3061 3061 3059 3060 3062 3062 3062 3062 3063 3063 3064 3066
3054 3059 3063 3062 3063 3055 3054 3055 3053 3055 3059 3063 3065 3066 3066 3066 3066 3064 3063 3061 3059 3058 3056 3054 3053 3051 3049 3049 3048 3048 3048 3049 3049 3049 3049 3050 3050 3052 3050 3050 3050 3050 3052 3052 3052 3052 3052 3053 3055
3053 3053 3057 3059 3058 3054 3046 3050 3051 3052 3057 3060 3063 3064 3063 3062 3061 3059 3057 3055 3053 3051 3049 3047 3045 3043 3042 3041 3041 3041 3040 3040 3040 3040 3040 3040 3040 3040 3040 3040 3040 3040 3040 3041 3042 3041 3041 3042 3043
3049 3053 3055 3056 3057 3056 3056 3053 3052 3056 3057 3058 3060 3060 3059 3058 3057 3055 3052 3050 3048 3045 3043 3041 3039 3038 3037 3036 3036 3035 3034 3032 3031 3030 3030 3029 3029 3029 3029 3030 3030 3032 3032 3032 3032 3032 3032 3031 3032